Погода в Пышкове

Россия / Смоленская область     55°37′37″N   35°17′39″E
темп.,
°C
ветер,
м/с
пор.,
м/с
влажн.,
%
обл.,
%
осадки,
мм/ч
давл.,
гПа
погр.,
м
5 марта, пт
пт500:00−7сз239333 0.0 100361
03:00−8зсз239518 0.0 100662
06:00−8з239780 0.0 100793
09:00−6зсз369285 0.1 1008423
12:00−4зсз357492 0.1 1010956
15:00−3зсз357193 0.1 10111126
18:00−6зюз238854 0.1 101238
21:00−7зюз229256 0.1 101427
6 марта, сб
сб600:00−8с129198 0.0 101524
03:00−9с259299 0.0 1016129
06:00−11сз239575 0.0 101744
09:00−9сз259239 0.0 1018213
12:00−5зсз357962 0.1 1018847
15:00−5зсз467281 0.4 10171176
18:00−7з258598 0.1 1016115
21:00−9зюз388865 0.1 1015203
7 марта, вс
вс700:00−8юз5148372 0.0 1012571
03:00−6юз7158086 0.1 1008778
06:00−6юз81687100 0.1 1002994
09:00−4юз91792100 1.6 9961250
12:00−3зсз81570100 1.8 9941388
15:00−5зсз81560100 2.8 9971852
18:00−6зюз4127593 0.1 9981074
21:00−6юз6158797 0.1 9961246
8 марта, пн
пн800:00−5з71392100 0.6 9941065
03:00−8зсз51280100 0.9 996781
06:00−10сз7138899 0.1 998948
09:00−10сз6127796 0.3 1002960
12:00−8зсз6107532 0.0 10041024
15:00−7зсз6108066 0.1 10061216
18:00−8сз4991100 0.2 1008657
21:00−11сз389397 0.3 1010231
9 марта, вт
вт900:00−12ссз379597 0.1 1012426
03:00−14с379498 0.1 1014416
06:00−17ссз3796100 0.1 1016327
09:00−17с3792100 0.1 1018369
12:00−13ссз358190 0.0 1019582
15:00−11сз357579 0.0 1020842
18:00−13зсз228776 0.0 102059
21:00−14з229160 0.0 102235